Regional Weather Roundup
Issued by NWS

Home | Current Version | Previous Version | Graphics & Text | Print | Product List | Glossary On
Versions: 1 2 3 4 5 6 7 8 9 10 11 12 13 14 15 16 17 18 19 20 21 22 23 24 25 26 27 28 29 30 31 32 33 34 35 36 37 38 39 40 41 42 43 44 45 46 47 48 49 50
000
ASUS44 KMEG 010210
RWRTN
TENNESSEE HOURLY STATE WEATHER ROUNDUP
NATIONAL WEATHER SERVICE MEMPHIS TN
900 PM CDT TUE SEP 30 2014

TNZ002-004-019-021-049-052-054-088>092-010300-
WEST TENNESSEE

CITY           SKY/WX    TMP DP  RH WIND       PRES   REMARKS
MEMPHIS INTL   MOCLDY    77  61  57 CALM      29.88R
NWS MEMPHIS      N/A     70 N/A N/A MISG        N/A
JACKSON        PTCLDY    67  64  90 CALM      29.90R
DYERSBURG      PTCLDY    68  55  64 CALM      29.91R
UNION CITY     CLEAR     64  61  88 CALM      29.89S
PARIS          CLEAR     61  54  77 CALM      29.91S
HUNTINGDON     PTCLDY    64  59  84 CALM      29.91R
LEXINGTON      CLEAR     66  63  88 CALM      29.90S
SAVANNAH       MOCLDY    64  64 100 CALM      29.91R
$$

TNZ008-025-027-028-033-062-065-066-010300-
NORTH MIDDLE TENNESSEE

CITY           SKY/WX    TMP DP  RH WIND       PRES   REMARKS
NASHVILLE      MOCLDY    69  54  58 CALM      29.92R
PORTLAND       CLEAR     63  55  77 CALM      29.92R
CLARKSVILLE    PTCLDY    64  58  80 S5        29.90R
LEBANON        PTCLDY    64  53  67 CALM      29.91R
SMYRNA         PTCLDY    66  55  67 CALM      29.92R
MURFREESBORO   PTCLDY    71  53  52 CALM      29.91
COOKEVILLE     CLEAR     61  57  88 E5        29.94S
GALLATIN       PTCLDY    67  57  70 CALM      29.93R
CROSSVILLE     CLEAR     61  55  81 CALM      29.99R
$$

TNZ061-075-076-078-094-096-097-010300-
SOUTH MIDDLE TENNESSEE

CITY           SKY/WX    TMP DP  RH WIND       PRES   REMARKS
LEWISBURG      PTCLDY    61  58  90 CALM      29.92R
FAYETTEVILLE     N/A     66  57  72 S6        29.93S
TULLAHOMA        N/A     63  57  82 CALM      29.95R
WINCHESTER     CLEAR     63  59  88 CALM      29.94R
MCMINNVILLE    CLEAR     63  63 100 CALM      29.95R
COLUMBIA       CLEAR     64  64 100 CALM      29.91R
SHELBYVILLE    CLEAR     64  55  72 E5        29.94R
$$

TNZ017-018-042-046-047-010300-
NORTHEAST TENNESSEE

CITY           SKY/WX    TMP DP  RH WIND       PRES   REMARKS
TRI CITIES     CLEAR     60  54  80 CALM      29.96R
ELIZABETHTON   CLEAR     57  55  94 CALM      29.98R
$$

TNZ012-013-036-069-073-074-010300-
CENTRAL EAST TENNESSEE

CITY           SKY/WX    TMP DP  RH WIND       PRES   REMARKS
KNOXVILLE      CLEAR     68  59  73 CALM      29.94R
OAK RIDGE      CLEAR     64  61  90 CALM      29.96R
GATLINBURG     CLEAR     63  57  82 CALM      29.95R
MORRISTOWN     CLEAR     64  57  77 CALM      29.97R
$$

TNZ083-085-099-010300-
SOUTHEAST TENNESSEE

CITY           SKY/WX    TMP DP  RH WIND       PRES   REMARKS
CHATTANOOGA    PTCLDY    68  63  84 CALM      29.93R
$$

SKY/WX REPORTED AS FAIR MEANS FEW OR NO CLOUDS BELOW
12 THOUSAND FEET.



USA.gov is the U.S. government's official web portal to all federal, state and local government web resources and services.